Location: A�t �Alizem
(31.2076°N, 8.7872°W)
Time: 15:28:32
(UTC+00:00)

Cosmos 1603 - Pass Details

Date: 27 November 2020
Orbit: 831 x 859 km, 71.0° (Epoch: 26 January)

Event Time Altitude Azimuth Distance (km) Brightness Sun altitude
Rises 18:35:40 0° 183° (S) 3,382 7.1 -13.4°
Reaches altitude 10° 18:38:11 10° 178° (S) 2,446 6.3 -13.9°
Maximum altitude 18:43:32 47° 105° (ESE) 1,094 3.9 -15.0°
Enters shadow 18:47:31 18° 38° (NE) 1,965 5.1 -15.9°
